User: anonymous   Login
Location: Unspecified
(0.0000°N, 0.0000°E)
Time: 15:15:54
(UTC+00:00)
Language:

GSAT 7 - Orbit

View from above orbital plane
View from above orbital plane
View from above satellite
View from above satellite

Ground track
Ground track

The orbit data is extracted from the following two-line orbital elements,

1 39234U 13044B   17022.45522528 -.00000077 +00000-0 +00000-0 0  9993
2 39234 000.0948 265.0782 0012831 018.0517 076.7071 01.00272362010946
Epoch (UTC): 22 January 2017 10:55:31
Eccentricity: 0.0012831
inclination: 0.0948°
perigee height: 35732 km
apogee height: 35840 km
right ascension of ascending node: 265.0782°
argument of perigee: 18.0517°
revolutions per day: 1.00272362
mean anomaly at epoch: 76.7071°
orbit number at epoch: 1094

The dashed part of the orbit path shows where the satellite is in the earth's shadow,  

DLR